Temp
-1 -2 -3 -3 -3 -4 -5 -5 -5 -5 -4 -4 -4 -3 -3 -4 -4 -4 -4 -4 -4 -4 -3 -3 -3 -3 -2 -2 -1 0 1 4 4 1 0 1 1 1 1 2 3 4 5
-2 -3 -3 -3 -4 -5 -5 -5 -5 -5 -5 -5 -4 -4 -4 -5 -5 -5 -5 -4 -4 -4 -4 -4 -4 -4 -4 -3 -2 -2 -1 -0 2 1 -0 -1 1 -0 -1 -0 -0 1 1
-2 -3 -3 -4 -5 -5 -5 -6 -6 -6 -6 -5 -5 -5 -4 -4 -5 -5 -5 -5 -5 -5 -5 -5 -4 -4 -4 -4 -4 -3 -3 -2 -2 -2 -2 -2 -2 -1 -1 -1 -0 0 -0
-3 -3 -3 -3 -4 -5 -6 -6 -6 -7 -7 -6 -6 -5 -5 -5 -5 -5 -5 -5 -5 -5 -5 -5 -4 -4 -4 -5 -4 -4 -4 -3 -3 -3 -3 -3 -3 -3 -3 -3 -2 -1 -1
-3 -3 -3 -4 -4 -5 -5 -6 -6 -7 -7 -7 -6 -6 -5 -5 -5 -5 -6 -6 -6 -6 -6 -5 -5 -4 -4 -4 -5 -5 -5 -4 -4 -4 -4 -4 -4 -4 -4 -3 -3 -2 -2
-3 -4 -4 -4 -5 -5 -6 -7 -7 -7 -7 -7 -7 -7 -6 -5 -5 -5 -6 -6 -6 -6 -6 -6 -6 -6 -6 -5 -5 -5 -5 -5 -5 -4 -4 -4 -5 -5 -4 -4 -4 -3 -2
-5 -5 -5 -5 -6 -6 -7 -7 -8 -8 -8 -8 -8 -7 -7 -6 -6 -6 -6 -6 -7 -7 -7 -7 -6 -6 -6 -6 -6 -6 -6 -6 -6 -6 -5 -5 -5 -6 -5 -5 -5 -4 -4
-6 -6 -6 -7 -7 -7 -7 -8 -8 -8 -8 -8 -8 -8 -8 -7 -6 -7 -7 -7 -7 -8 -8 -7 -7 -7 -6 -7 -6 -7 -7 -7 -6 -6 -6 -6 -6 -6 -6 -6 -5 -5 -5
-7 -7 -7 -7 -8 -8 -8 -8 -8 -8 -8 -8 -8 -9 -8 -8 -7 -7 -8 -8 -8 -8 -9 -8 -8 -8 -7 -8 -8 -7 -8 -8 -7 -7 -7 -7 -7 -7 -7 -6 -6 -5 -4
-7 -7 -7 -8 -8 -8 -8 -9 -8 -8 -8 -8 -8 -9 -8 -9 -8 -8 -8 -9 -9 -9 -9 -9 -9 -8 -8 -8 -9 -8 -8 -9 -9 -8 -8 -8 -8 -8 -7 -8 -7 -6 -6
-6 -7 -7 -8 -8 -8 -9 -9 -9 -8 -8 -9 -9 -9 -9 -9 -9 -8 -8 -9 -10 -9 -10 -11 -10 -9 -9 -9 -10 -10 -10 -10 -10 -10 -9 -10 -10 -9 -9 -9 -9 -8 -7
-6 -7 -8 -8 -8 -9 -9 -9 -9 -9 -9 -9 -9 -9 -9 -10 -9 -9 -9 -10 -11 -11 -11 -12 -11 -11 -11 -11 -11 -11 -12 -12 -11 -11 -11 -11 -11 -11 -10 -10 -9 -9 -9
-7 -7 -7 -8 -8 -9 -10 -10 -10 -10 -9 -9 -10 -10 -10 -10 -10 -10 -10 -10 -11 -13 -13 -13 -13 -12 -13 -13 -12 -12 -13 -13 -13 -13 -13 -12 -12 -12 -11 -10 -10 -10 -8
-7 -7 -8 -8 -8 -9 -10 -10 -11 -10 -10 -10 -10 -11 -11 -10 -10 -10 -11 -11 -12 -13 -13 -13 -14 -14 -13 -14 -13 -13 -14 -14 -14 -14 -13 -13 -13 -12 -11 -11 -11 -10 -10
-7 -8 -8 -9 -9 -9 -10 -10 -11 -11 -10 -11 -11 -11 -11 -11 -10 -10 -11 -11 -12 -13 -14 -14 -15 -15 -14 -14 -14 -14 -14 -14 -14 -14 -14 -14 -13 -13 -12 -12 -11 -11 -10
-8 -9 -9 -9 -10 -10 -10 -10 -11 -11 -11 -11 -12 -12 -12 -11 -11 -11 -12 -12 -12 -14 -15 -15 -15 -15 -15 -15 -15 -15 -15 -15 -15 -15 -14 -14 -14 -14 -13 -13 -12 -11 -11
-9 -9 -10 -10 -11 -11 -11 -12 -12 -9 -11 -12 -12 -13 -12 -12 -12 -12 -13 -14 -14 -14 -16 -16 -16 -16 -16 -15 -15 -15 -15 -15 -15 -15 -15 -15 -15 -14 -14 -14 -13 -12 -12
-9 -10 -10 -10 -11 -11 -11 -12 -12 -13 -13 -12 -11 -12 -13 -13 -13 -14 -14 -14 -16 -16 -16 -16 -16 -16 -16 -16 -16 -16 -16 -16 -15 -15 -15 -15 -15 -15 -14 -14 -13 -13 -12
-10 -10 -10 -10 -11 -11 -12 -12 -13 -13 -14 -14 -13 -11 -11 -14 -15 -15 -16 -16 -17 -17 -17 -17 -17 -17 -17 -17 -16 -17 -17 -16 -16 -16 -15 -15 -15 -15 -15 -14 -14 -14 -13
-10 -10 -10 -10 -11 -11 -12 -12 -13 -13 -14 -14 -15 -15 -13 -14 -14 -15 -15 -16 -17 -17 -18 -18 -17 -17 -17 -17 -17 -17 -17 -16 -16 -16 -16 -16 -15 -15 -15 -14 -14 -13 -12
-10 -10 -10 -10 -11 -12 -12 -13 -13 -14 -14 -14 -15 -15 -15 -16 -16 -16 -16 -16 -16 -17 -17 -17 -17 -18 -18 -17 -17 -17 -17 -16 -16 -16 -16 -16 -15 -15 -14 -14 -13 -13 -12
-9 -10 -10 -11 -12 -12 -12 -13 -13 -14 -14 -14 -13 -13 -13 -13 -14 -14 -14 -14 -15 -16 -16 -17 -17 -17 -17 -17 -17 -17 -16 -16 -16 -16 -16 -15 -15 -14 -13 -13 -12 -11 -11
-9 -10 -11 -11 -12 -12 -12 -12 -13 -13 -13 -13 -13 -13 -13 -13 -13 -14 -13 -13 -13 -13 -14 -15 -16 -16 -16 -16 -17 -17 -17 -17 -17 -16 -15 -14 -13 -12 -12 -11 -10 -9 -8
-10 -10 -11 -12 -11 -12 -12 -12 -12 -13 -13 -13 -13 -13 -13 -13 -13 -13 -12 -12 -12 -12 -13 -13 -14 -15 -15 -16 -16 -16 -16 -16 -15 -14 -13 -12 -12 -10 -10 -9 -8 -6 -5
-10 -10 -11 -11 -11 -12 -12 -12 -12 -13 -13 -13 -13 -13 -13 -13 -12 -12 -12 -12 -12 -12 -12 -12 -13 -13 -14 -15 -15 -15 -13 -13 -12 -11 -10 -10 -9 -9 -8 -7 -7 -6 -6
-10 -11 -11 -11 -11 -12 -12 -12 -13 -13 -13 -13 -13 -13 -13 -13 -12 -12 -12 -12 -11 -11 -11 -11 -12 -12 -12 -14 -14 -12 -11 -10 -10 -9 -9 -9 -8 -8 -7 -7 -7 -7 -6
Height
833 830 826 821 816 811 805 799 794 789 782 776 770 764 756 753 744 735 732 725 716 711 706 703 694 685 679 674 671 664 661 659 663 672 671 670 672 680 672 671 667 672 680
838 835 830 825 821 815 809 803 798 794 788 782 776 769 765 758 746 740 738 733 729 722 718 713 705 694 689 683 681 673 674 674 675 673 677 677 678 684 690 670 678 678 685
841 838 834 830 824 819 813 807 802 799 793 787 781 776 769 762 754 748 751 745 739 733 729 725 718 708 700 694 691 685 688 684 686 686 688 687 686 687 686 685 687 681 685
845 842 838 833 828 824 818 812 808 804 798 793 788 782 776 772 767 763 757 753 747 742 739 735 727 717 712 703 702 698 697 694 696 697 698 697 693 693 691 698 694 687 694
849 845 841 836 832 827 821 818 813 809 805 799 793 788 783 777 772 770 763 759 754 750 748 743 736 728 722 714 711 708 704 703 707 709 709 706 704 703 704 703 702 696 694
852 849 844 840 835 831 827 823 819 814 809 805 798 793 787 784 780 775 772 765 759 757 754 748 742 734 727 723 719 718 711 714 718 719 718 715 714 714 711 709 708 704 705
856 852 847 844 839 835 832 827 823 820 814 809 805 799 794 792 786 780 775 770 766 763 758 752 747 739 732 729 726 724 721 723 725 726 723 723 721 720 718 716 715 715 714
859 856 852 847 843 840 836 832 828 824 820 817 812 807 800 795 791 784 779 775 772 768 763 758 751 746 741 736 733 730 730 730 730 729 729 727 724 723 721 719 719 716 714
863 860 856 852 848 844 840 837 833 828 824 820 816 811 807 801 795 789 783 778 775 772 768 763 758 754 750 745 740 737 737 737 736 735 733 731 728 726 724 719 719 718 714
868 864 861 858 853 849 846 842 838 833 829 825 820 816 811 805 801 795 788 784 778 775 772 767 764 761 756 751 746 744 743 743 741 739 735 733 731 728 726 724 722 722 719
873 869 866 862 858 854 851 847 841 837 833 828 824 820 816 811 805 800 795 789 785 781 776 772 769 764 761 756 752 749 749 746 744 741 738 736 734 730 728 727 724 723 722
877 874 870 866 862 859 856 851 846 841 837 833 828 823 820 816 812 807 802 797 791 786 781 777 772 768 763 759 756 754 750 746 745 742 740 739 736 732 729 728 726 722 721
880 877 874 870 867 864 860 855 850 846 842 838 834 829 824 820 816 811 805 800 795 789 786 781 776 771 765 760 757 754 749 746 746 742 740 739 736 733 731 729 725 722 718
882 880 877 873 871 869 865 861 857 853 849 845 840 835 830 824 818 813 808 803 798 792 787 781 777 772 767 764 759 755 752 750 748 745 744 742 739 735 731 727 723 721 717
885 882 880 877 874 872 870 867 863 861 857 853 848 844 836 830 827 823 815 808 802 796 789 783 778 774 770 766 763 760 757 754 751 749 745 741 738 735 732 729 726 722 720
888 885 883 880 877 876 873 870 868 865 862 858 854 849 844 841 834 827 819 813 807 798 792 787 784 780 776 773 769 766 762 758 755 751 747 744 740 736 732 728 725 722 719
891 889 887 884 881 879 876 874 870 867 864 860 856 851 846 842 835 829 823 816 810 802 798 795 791 787 784 780 775 770 765 761 758 753 749 745 741 736 732 728 726 723 718
895 893 890 887 885 883 881 879 876 872 867 862 858 854 848 844 839 833 825 817 810 806 804 801 798 793 789 784 779 774 769 764 760 755 751 747 742 739 734 730 727 723 717
898 896 894 891 889 888 885 883 880 876 873 869 863 857 852 847 842 836 829 822 818 813 809 805 801 796 791 786 781 776 771 765 761 756 751 747 743 739 734 730 726 721 717
901 900 897 895 894 891 889 887 884 881 877 874 869 864 857 849 843 837 832 827 822 818 813 808 803 798 792 787 781 776 770 765 760 755 750 745 741 737 731 726 722 717 712
904 902 900 899 897 895 894 891 888 884 881 877 874 869 863 857 851 845 839 833 827 821 816 810 805 799 794 789 783 777 771 766 761 755 750 744 739 733 729 723 718 713 708
906 905 903 902 902 900 897 895 892 888 885 881 876 872 866 860 855 849 843 837 831 826 820 813 806 801 795 789 783 777 772 766 760 754 748 742 736 731 725 720 714 709 704
908 908 907 906 905 904 901 898 895 892 888 885 880 875 869 864 858 853 847 840 834 828 821 814 807 801 796 790 784 780 773 766 759 753 746 740 734 728 723 718 712 706 701
911 910 910 909 908 907 904 901 899 896 892 888 884 879 874 869 863 857 851 844 837 831 824 817 810 804 797 790 784 779 773 765 758 751 746 740 734 728 722 717 712 706 701
913 913 912 912 911 909 907 905 902 899 895 891 887 883 878 872 866 861 854 848 842 834 827 820 812 806 799 791 786 779 772 764 758 752 746 741 735 730 725 720 715 709 704
915 915 914 914 913 912 910 907 905 902 898 894 891 886 881 875 870 865 858 852 846 839 831 823 816 809 801 794 788 781 773 765 759 753 748 743 738 733 728 723 718 713 708
Wind_Speed
25 24 25 25 27 25 26 28 30 30 33 35 34 34 34 32 32 33 33 34 33 33 34 33 32 32 30 30 28 27 26 15 7 9 17 24 29 21 26 26 33 33 29
23 24 26 26 25 27 28 30 31 31 32 34 35 33 33 34 36 37 35 31 31 32 32 31 33 33 33 32 29 33 29 30 14 10 14 25 30 26 21 30 25 28 28
22 21 25 26 27 30 31 30 29 29 31 34 35 34 34 33 36 34 28 29 29 30 30 28 29 31 30 32 32 33 29 30 27 19 15 19 26 25 24 26 21 25 20
21 20 22 23 25 26 28 27 27 27 30 31 30 34 32 32 31 31 29 28 28 29 28 27 27 31 31 30 30 30 29 27 24 20 19 18 17 19 23 17 18 19 16
19 20 21 23 24 23 30 29 27 27 29 32 33 29 32 31 30 28 29 29 28 28 27 27 29 26 29 31 30 29 28 26 22 18 16 17 19 16 16 13 11 12 17
21 21 21 20 22 24 24 24 27 28 29 31 32 32 30 31 29 26 24 26 29 28 27 27 28 30 27 28 28 30 32 26 21 16 15 13 18 16 15 15 13 7 2
19 21 21 21 22 23 24 25 25 25 28 32 33 34 33 32 32 27 25 24 26 27 28 29 28 31 30 26 25 25 27 27 24 18 15 16 13 15 11 11 10 6 3
21 23 23 22 22 21 22 24 25 27 27 25 27 29 30 33 33 33 25 24 23 26 28 29 29 30 31 26 22 23 22 23 23 19 17 16 17 15 12 8 9 6 5
21 22 24 22 22 22 23 23 24 24 25 24 25 27 29 30 35 35 31 25 23 23 24 27 29 28 28 25 22 21 19 20 16 15 15 15 15 15 16 12 16 12 4
20 20 21 23 23 24 24 23 23 22 21 22 23 26 27 31 32 34 33 27 24 23 22 24 27 26 26 27 24 21 19 18 17 15 15 15 16 15 16 14 12 12 9
18 18 20 23 23 22 23 23 24 22 22 23 23 24 27 30 33 33 33 29 25 21 23 24 24 25 23 24 24 24 20 15 15 14 13 15 15 16 15 14 12 9 7
17 18 21 23 22 23 22 22 24 23 23 24 25 25 27 29 31 31 30 29 26 21 22 23 22 23 22 22 24 21 20 18 17 16 15 16 16 16 16 15 12 10 7
13 16 17 19 19 22 22 23 24 25 24 25 25 26 27 29 31 31 29 28 27 24 20 20 20 20 21 26 23 24 26 24 21 19 19 19 18 17 14 14 13 12 12
13 15 16 17 15 17 20 22 24 26 25 25 26 27 27 29 34 35 31 29 30 26 26 27 26 24 25 25 26 28 25 24 21 20 18 18 17 17 16 16 16 16 13
13 15 16 16 17 18 17 20 21 23 24 24 25 24 27 30 33 31 29 29 30 26 25 26 26 27 26 27 26 26 24 25 23 22 21 22 20 18 16 16 13 15 11
12 15 16 18 18 17 19 19 16 19 20 22 22 24 25 23 27 29 28 25 25 24 24 24 24 25 25 26 26 25 23 24 25 23 22 21 21 20 20 18 15 15 15
13 13 14 15 19 19 20 21 23 24 20 22 25 25 25 25 28 29 29 24 24 30 25 25 24 25 25 25 25 25 26 27 26 24 23 23 23 22 22 22 19 17 17
13 13 15 16 17 19 20 21 21 23 26 31 31 29 28 26 26 28 30 31 31 30 25 22 22 23 24 24 25 25 25 26 24 25 24 23 23 21 22 20 19 19 20
10 12 14 16 17 17 19 21 22 23 22 23 30 34 34 30 26 28 29 33 27 26 27 25 25 25 25 24 25 25 26 25 26 25 23 23 22 20 20 19 20 20 20
11 12 14 16 17 19 21 22 23 24 24 24 26 29 35 35 36 36 37 37 33 29 28 27 27 26 26 26 27 27 27 26 26 25 25 25 25 23 22 23 22 21 21
10 12 14 16 17 18 19 21 22 24 25 26 26 29 31 30 31 33 35 37 36 34 33 31 30 28 27 27 27 28 26 28 26 26 26 26 26 25 24 23 23 22 22
10 11 14 16 16 17 18 19 21 23 25 28 29 31 34 36 37 37 38 38 37 35 34 33 32 31 30 31 31 29 29 28 29 29 29 29 28 26 25 24 24 23 22
9 10 12 14 15 16 18 20 22 24 26 27 29 32 34 36 37 38 39 40 39 39 38 36 35 35 33 33 32 29 30 31 32 30 30 29 28 27 26 25 25 24 22
8 10 12 13 14 15 18 20 21 23 25 27 29 31 33 35 37 38 39 41 41 41 40 39 38 36 35 36 36 35 31 29 27 26 24 24 25 26 26 25 26 26 21
8 10 11 12 13 15 16 19 20 22 24 27 28 30 32 34 37 38 40 41 42 42 43 42 40 38 37 38 38 35 31 28 24 23 23 23 23 24 25 24 26 22 23
7 8 10 10 11 13 16 18 20 22 24 25 27 29 31 34 35 37 39 41 42 43 44 44 42 40 40 41 39 36 34 31 27 26 25 24 25 26 27 27 27 24 22
Wind_Direction
14 16 12 9 13 19 19 19 19 17 19 21 23 25 25 18 24 30 16 15 20 20 22 20 20 23 25 24 25 27 22 11 115 73 68 73 61 54 72 82 103 110 116
22 19 19 24 18 16 17 18 23 23 27 21 24 23 28 25 25 26 17 14 19 21 20 22 22 25 27 27 26 34 31 37 56 76 60 60 68 61 57 69 72 90 94
23 23 23 24 24 27 27 24 25 26 31 32 25 22 19 24 25 25 17 16 22 25 24 23 27 30 30 31 29 36 31 43 43 52 45 51 62 59 55 57 65 84 78
27 20 15 13 16 24 23 25 29 32 30 30 29 28 27 28 27 25 21 20 23 25 24 27 30 38 36 38 37 37 35 38 35 43 43 39 37 41 48 33 36 62 64
19 15 16 24 26 28 28 31 33 36 34 33 31 28 25 26 24 23 24 23 24 24 22 26 33 40 45 48 47 43 44 42 37 35 40 42 35 33 31 22 27 66 56
19 18 19 25 25 23 23 25 30 34 36 34 27 22 25 25 21 23 21 24 26 26 20 21 28 31 38 44 49 51 53 45 38 39 36 44 33 22 26 27 24 18 30
24 24 26 25 27 27 30 33 31 24 28 29 26 24 24 23 22 23 24 26 26 23 24 23 25 29 31 33 42 47 51 51 53 44 45 37 37 24 19 19 24 26 23
25 25 25 26 29 29 33 32 30 27 25 23 23 21 20 22 21 21 21 24 24 23 21 25 25 26 29 29 35 43 42 41 39 41 44 39 38 26 23 15 3 353 88
30 32 31 32 32 33 33 29 23 19 18 19 20 21 22 18 21 20 18 18 18 20 21 25 26 25 26 29 38 38 36 33 30 38 40 40 38 30 21 26 21 24 35
33 38 40 37 36 35 30 27 21 20 17 19 20 22 22 19 19 19 18 16 15 15 16 20 24 25 25 28 33 32 32 20 18 24 31 31 29 26 28 26 22 18 13
42 41 42 40 30 35 30 23 21 18 18 18 18 19 20 19 18 19 20 21 15 12 14 12 16 19 24 28 31 31 25 17 18 23 24 19 19 17 14 8 11 7 354
41 42 41 39 31 26 25 21 22 21 20 17 15 16 17 16 17 16 18 20 17 19 13 8 12 15 20 27 28 25 25 26 22 21 19 14 8 4 360 355 349 348 333
33 34 32 27 27 31 28 25 24 22 20 17 15 11 9 10 11 12 15 15 16 19 16 11 13 15 21 29 22 20 23 21 15 15 9 360 357 350 347 348 351 349 349
37 32 30 34 31 27 31 31 29 24 21 17 13 10 6 8 10 9 8 9 8 16 22 25 25 23 24 21 18 18 17 14 11 5 357 351 351 355 355 354 349 351 345
35 34 31 33 31 32 31 31 30 31 28 22 16 12 7 8 7 6 8 9 8 8 15 18 17 16 14 11 9 8 7 6 4 359 353 349 350 352 350 349 346 343 338
36 34 34 33 34 28 26 27 36 31 28 28 24 22 14 12 9 11 13 13 14 17 21 15 12 10 8 2 1 358 360 358 355 351 348 346 343 343 340 342 342 338 328
43 36 38 38 37 32 31 26 18 36 37 27 23 21 20 12 11 11 13 15 18 22 21 13 8 2 358 356 355 353 348 348 348 346 344 342 339 337 338 335 336 334 326
44 45 48 47 44 41 39 37 32 21 15 20 31 24 22 14 12 13 13 24 18 21 16 7 360 355 352 351 349 346 342 341 343 340 337 335 334 330 326 325 325 321 319
41 40 50 53 50 48 45 41 37 32 23 16 17 27 28 24 16 21 19 23 12 7 4 1 358 354 351 347 344 342 340 337 337 335 333 331 328 324 316 313 309 303 302
55 55 56 55 51 49 45 42 38 35 30 24 19 12 20 22 18 16 19 18 14 7 2 358 356 354 351 347 344 342 340 340 338 336 332 330 329 324 314 312 310 307 305
62 60 61 57 52 50 47 44 40 36 30 28 25 23 27 23 17 17 16 16 15 10 7 4 359 358 354 349 346 342 341 337 336 333 330 327 326 319 319 312 306 302 296
70 67 63 59 54 51 49 45 42 39 34 30 27 27 29 28 25 22 20 20 18 16 13 11 8 6 1 356 352 346 340 338 336 335 331 331 331 330 327 319 317 313 309
75 73 68 63 57 53 49 46 43 39 35 31 29 27 27 26 25 22 20 19 18 17 17 14 13 11 11 8 6 349 342 339 338 341 337 337 341 340 337 330 328 322 318
81 79 73 66 58 52 48 45 41 38 35 31 29 27 26 25 24 22 21 20 19 18 18 17 16 13 13 13 6 0 358 359 355 355 353 352 352 356 355 351 347 341 344
88 83 77 67 58 51 47 43 39 36 33 31 28 26 26 25 24 23 22 20 19 19 18 19 18 16 17 18 11 10 13 16 15 15 15 15 12 13 13 10 2 359 7
93 85 76 66 57 49 44 40 36 32 31 29 27 27 26 25 24 22 21 20 19 19 19 20 19 18 22 20 17 17 22 25 26 31 30 29 26 26 25 23 16 9 6